DW4691 Weather Reports


Display with metric or nautical units.
time (UTC)temp
F
wind
direction
speed
MPH
gust
MPH
rain 1hr
in
rain 24hr
in
rain mn
in
humidity
%
barometer
mb
20260902231557 93 0 0.0 1.0 0.00 0.00 0.00 58 1011.1
20260902230051 95 0 0.0 1.0 0.00 0.00 0.00 55 1010.9
20260902224552 95 0 0.0 2.0 0.00 0.00 0.00 55 1010.8
20260902223116 96 0 0.0 2.0 0.00 0.00 0.00 53 1010.9
20260902221615 97 0 0.0 3.0 0.00 0.00 0.00 51 1010.8
20260902220109 97 0 0.0 2.0 0.00 0.00 0.00 50 1010.7
20260902214601 97 0 0.0 3.0 0.00 0.00 0.00 49 1010.8
20260902213104 97 0 0.0 2.0 0.00 0.00 0.00 48 1011.0
20260902211609 97 0 0.0 2.0 0.00 0.00 0.00 49 1011.2
20260902210056 97 0 0.0 3.0 0.00 0.00 0.00 50 1011.3
20260902204553 98 0 0.0 1.0 0.00 0.00 0.00 50 1011.2
20260902203058 98 0 0.0 3.0 0.00 0.00 0.00 51 1011.5
20260902201621 97 115 0.0 6.0 0.00 0.00 0.00 52 1011.6
20260902200056 97 0 0.0 2.0 0.00 0.00 0.00 53 1011.8
20260902194602 97 0 0.0 4.0 0.00 0.00 0.00 55 1012.1
20260902193058 97 0 0.0 4.0 0.00 0.00 0.00 56 1012.4
20260902191555 97 0 0.0 2.0 0.00 0.00 0.00 56 1012.5
20260902190054 96 0 0.0 4.0 0.00 0.00 0.00 57 1012.8
20260902184647 95 138 0.0 5.0 0.00 0.00 0.00 58 1013.0
20260902183058 94 0 0.0 3.0 0.00 0.00 0.00 59 1013.2
20260902181612 94 0 0.0 3.0 0.00 0.00 0.00 60 1013.6
20260902180101 93 0 0.0 2.0 0.00 0.00 0.00 63 1013.8
20260902174608 92 0 0.0 3.0 0.00 0.00 0.00 65 1014.1
20260902173101 91 0 0.0 0.0 0.00 0.00 0.00 67 1014.4
20260902171609 91 0 0.0 0.0 0.00 0.00 0.00 68 1014.6
20260902170055 89 0 0.0 1.0 0.00 0.00 0.00 71 1014.9
20260902164559 88 0 0.0 1.0 0.00 0.00 0.00 74 1015.0
20260902163059 87 0 0.0 0.0 0.00 0.00 0.00 77 1015.1
20260902161601 87 0 0.0 2.0 0.00 0.00 0.00 78 1015.1
20260902160051 86 0 0.0 4.0 0.00 0.00 0.00 80 1015.1
20260902154609 85 0 0.0 2.0 0.00 0.00 0.00 82 1015.1
20260902153100 84 0 0.0 3.0 0.00 0.00 0.00 84 1015.1
20260902151607 83 0 0.0 0.0 0.00 0.00 0.00 85 1015.2
20260902150052 82 0 0.0 0.0 0.00 0.00 0.00 86 1015.3
20260902144601 82 0 0.0 0.0 0.00 0.00 0.00 86 1015.2
20260902143057 82 0 0.0 0.0 0.00 0.00 0.00 87 1015.3
20260902141604 81 0 0.0 0.0 0.00 0.00 0.00 88 1015.2
20260902140051 81 0 0.0 0.0 0.00 0.00 0.00 88 1015.1
20260902134619 81 0 0.0 0.0 0.00 0.00 0.00 88 1015.1
20260902133100 80 0 0.0 0.0 0.00 0.00 0.00 88 1015.1
20260902131553 80 0 0.0 0.0 0.00 0.00 0.00 89 1014.8
20260902130052 80 0 0.0 0.0 0.00 0.00 0.00 89 1014.6
20260902124551 80 0 0.0 0.0 0.00 0.00 0.00 89 1014.4
20260902123054 80 0 0.0 2.0 0.00 0.00 0.00 88 1014.1
20260902121551 80 0 0.0 1.0 0.00 0.00 0.00 88 1013.7
20260902120051 80 0 0.0 1.0 0.00 0.00 0.00 88 1013.5
20260902114546 80 0 0.0 2.0 0.00 0.00 0.00 88 1013.4
20260902113057 80 0 0.0 1.0 0.00 0.00 0.00 88 1013.4
20260902111556 80 0 0.0 1.0 0.00 0.00 0.00 88 1013.3
20260902110052 80 0 0.0 2.0 0.00 0.00 0.00 88 1013.3
20260902104550 80 0 0.0 2.0 0.00 0.00 0.00 87 1013.4
20260902103101 80 0 0.0 0.0 0.00 0.00 0.00 87 1013.4
20260902101556 80 0 0.0 0.0 0.00 0.00 0.00 86 1013.4
20260902100050 80 0 0.0 0.0 0.00 0.00 0.00 87 1013.3
20260902094546 81 0 0.0 0.0 0.00 0.00 0.00 86 1013.4
20260902093128 81 0 0.0 0.0 0.00 0.00 0.00 86 1013.3
20260902091553 81 0 0.0 0.0 0.00 0.00 0.00 86 1013.4
20260902090100 80 0 0.0 2.0 0.00 0.00 0.00 84 1013.4
20260902084557 80 0 0.0 0.0 0.00 0.00 0.00 82 1013.2
20260902083053 80 0 0.0 0.0 0.00 0.00 0.00 82 1013.3
20260902081614 80 0 0.0 0.0 0.00 0.00 0.00 82 1013.2
20260902080054 79 0 0.0 0.0 0.00 0.00 0.00 83 1013.0
20260902074556 79 0 0.0 0.0 0.00 0.00 0.00 84 1013.3
20260902073050 79 0 0.0 0.0 0.00 0.00 0.00 85 1013.3
20260902071603 79 0 0.0 0.0 0.00 0.00 0.00 85 1013.6
20260902070056 78 0 0.0 0.0 0.00 0.00 0.00 85 1013.6
20260902064601 78 0 0.0 0.0 0.00 0.00 0.00 86 1013.6
20260902063054 78 0 0.0 0.0 0.00 0.00 0.00 86 1013.6
20260902061554 78 0 0.0 0.0 0.00 0.00 0.00 86 1013.6
20260902060108 78 0 0.0 0.0 0.00 0.00 0.00 87 1013.4
20260902054552 78 0 0.0 0.0 0.00 0.00 0.00 87 1013.4
20260902053052 78 0 0.0 0.0 0.00 0.00 0.00 87 1013.4
20260902051556 78 0 0.0 0.0 0.00 0.00 0.00 86 1013.5
20260902050109 78 0 0.0 0.0 0.00 0.00 0.00 86 1013.6
20260902044607 78 0 0.0 0.0 0.00 0.00 0.00 87 1013.4
20260902043105 78 0 0.0 0.0 0.00 0.00 0.00 87 1013.6
20260902041554 78 0 0.0 0.0 0.00 0.00 0.00 86 1013.7
20260902040056 78 0 0.0 0.0 0.00 0.00 0.00 87 1013.9
20260902034559 78 0 0.0 0.0 0.00 0.00 0.00 86 1013.8
20260902033100 79 0 0.0 0.0 0.00 0.00 0.00 86 1013.9
20260902031559 79 0 0.0 0.0 0.00 0.00 0.00 86 1013.9
20260902030051 79 0 0.0 0.0 0.00 0.00 0.00 86 1013.6
20260902024558 80 0 0.0 0.0 0.00 0.00 0.00 85 1013.5
20260902023053 80 0 0.0 0.0 0.00 0.00 0.00 85 1013.3
20260902021556 80 0 0.0 0.0 0.00 0.00 0.00 84 1012.9
20260902020052 80 0 0.0 0.0 0.00 0.00 0.00 84 1012.9
20260902014552 81 0 0.0 0.0 0.00 0.00 0.00 83 1012.5
20260902013049 81 0 0.0 0.0 0.00 0.00 0.00 83 1012.5
20260902011556 81 0 0.0 0.0 0.00 0.00 0.00 84 1012.4
20260902010052 81 0 0.0 0.0 0.00 0.00 0.00 84 1012.5
20260902004553 81 0 0.0 0.0 0.00 0.00 0.00 83 1012.7
20260902003048 81 0 0.0 0.0 0.00 0.00 0.00 83 1012.8
20260902001550 81 0 0.0 0.0 0.00 0.00 0.00 83 1012.5
20260902000048 82 0 0.0 0.0 0.00 0.00 0.00 83 1012.6
20260901234551 82 0 0.0 0.0 0.00 0.00 0.00 83 1012.8
20260901233100 82 0 0.0 0.0 0.00 0.00 0.00 80 1012.8